ATLAS 5 CENTAUR DEB, 43987

Orbit data source: Space-Track

ATLAS 5 CENTAUR DEB, 43987 is space debris in HEO originally from a launch on Wed, 17 Sep 2014 UTC launched from the Air Force Eastern Test Range (AFETR). Debris objects in space refer to the collection of defunct objects orbiting the Earth. Examples of debris include non-operational satellites, rocket bodies, and fragments generated from explosions, collisions, or faulty payload assembly.

Loading next visibility...
Identifier
43987, 2014-055AS
Orbit
HEO
Country
Flag of USUS
Related business
Flag of USUnited Launch Alliance/Lockheed Martin (US)
Manufacturer
Unknown
Mission
Spacecraft
Bus & Motor
Unknown
Mass
Unknown
Launch date (UTC)
2014-09-17 (12 years ago)
Launch vehicle
Unknown
Launch site
Air Force Eastern Test Range (AFETR)
Object type
Payload
Rocket body
Debris
Shape & HBR
Unknown shape, 1.1 m
Radar Cross Section
Medium (>0.1 m² and <1 m²)

Expand to show TLE details & history
Last TLE update: 2 days ago

TLE from 2 days ago
0 ATLAS 5 CENTAUR DEB
1 43987U 14055AS  26171.12504480 -.00000047  00000-0  00000-0 0  9999
2 43987  20.0042 144.9729 4862388 160.7804 227.0171  1.84000120 52454
Epoch: 2026-06-20T03:00Z
TLE epoch observation values (Epoch: 2026-06-20T03:00:03.870Z)
Latitude
Longitude
-168.4116°
Altitude
33,323.692 km
Speed
2.431 km/s
True Right ascension
09h 39m 47s
True Declination
0° 00' 00"
Sunlit
Object was in daylight at epoch
Visualization orbit readout
Latitude
Unknown
Longitude
Unknown
Altitude
Unknown
Speed
Unknown
Apparent Right ascension
Unknown
Apparent Declination
Unknown
Sunlit
N/A
Visualization observer readout
Local Sidereal Time
21:37:21
Azimuth
Unknown
Elevation
Unknown
Doppler factor
Unknown
Orbital elements
Apogee altitude
35,434.59 km
Perigee altitude
8,075.635 km
Semi-major axis
28,133.25 km
Eccentricity
0.48624
Inclination
20.0042°
RAAN
144.9729°
Arg. of periapsis
160.7804°
True anomaly
199.25033°
Mean anomaly
227.0171°
Eccentric anomaly
212.17979°
Mean motion
0.45995 °/min
Orbital period
782.69 mins
BSTAR
0
Loading maneuver chart data...
Computing Atmospheric mass density...

Documentation

Showing up to 5 results
|